Change the Weather History Date:

Thursday, August 29, 2013

  Actual Average (KDLZ) Record (KDLZ)
Temperature  
Mean Temperature 74 °F -  
Max Temperature 83 °F 81 °F 95 °F (1955)
Min Temperature 64 °F 57 °F 37 °F (1986)
Cooling Degree Days 8    
Growing Degree Days 24 (Base 50)    
Moisture  
Dew Point 66 °F    
Average Humidity 82    
Maximum Humidity 94    
Minimum Humidity 52    
Precipitation  
Precipitation 0.00 in - - ()
Sea Level Pressure  
Sea Level Pressure 30.04 in    
Wind  
Wind Speed 4 mph (NE)    
Max Wind Speed 7 mph    
Max Gust Speed -    
Visibility 5 miles    
Events      
Averages and records for this station are not official NWS values.
T = Trace of Precipitation, MM = Missing Value Source: NWS Daily Summary

Daily Weather History Graph

Daily Weather History Graph

Search for Another Location

Airport or City:

Trip Planner

Search our weather history database for the weather conditions in past years. The results will help you decide how hot, cold, wet, or windy it might be!

Date:

Astronomy

Aug. 29, 2013 Rise Set
Actual Time 6:58 AM EDT 8:09 PM EDT
Civil Twilight 6:30 AM EDT 8:37 PM EDT
Nautical Twilight 5:56 AM EDT 9:10 PM EDT
Astronomical Twilight 5:21 AM EDT 9:45 PM EDT
Moon 12:48 AM EDT (8/29) 3:37 PM EDT (8/29)
Length of Visible Light 14h 07m
Length of Day
13h 11m
Last Quarter, 38% of the Moon is Illuminated
Aug 29
Last Quarter
Sep 5
New
Sep 12
First Quarter
Sep 19
Full
Sep 26
Last Quarter

Hourly Weather History & Observations

Time (EDT) Temp. Heat Index Dew Point Humidity Pressure Visibility Wind Dir Wind Speed Gust Speed Precip Events Conditions
12:13 AM 70.7 °F - 67.1 °F 88% 30.01 in 7.0 mi North 4.6 mph - N/A   Clear
12:34 AM 70.3 °F - 67.1 °F 89% 30.01 in 5.0 mi North 4.6 mph - N/A   Clear
12:53 AM 70.2 °F - 67.1 °F 90% 30.01 in 5.0 mi North 3.5 mph - N/A   Clear
1:14 AM 70.0 °F - 66.9 °F 90% 30.01 in 5.0 mi North 4.6 mph - N/A   Clear
1:33 AM 69.8 °F - 66.6 °F 89% 30.01 in 5.0 mi NNE 3.5 mph - N/A   Clear
1:53 AM 69.8 °F - 66.7 °F 90% 30.01 in 5.0 mi NNE 4.6 mph - N/A   Scattered Clouds
2:14 AM 69.4 °F - 66.9 °F 92% 30.01 in 4.0 mi North 4.6 mph - N/A   Mostly Cloudy
2:33 AM 69.1 °F - 66.4 °F 91% 30.00 in 4.0 mi North 3.5 mph - N/A   Mostly Cloudy
2:53 AM 69.1 °F - 66.7 °F 92% 30.00 in 3.0 mi North 3.5 mph - N/A   Scattered Clouds
3:14 AM 68.9 °F - 66.4 °F 92% 30.00 in 3.0 mi North 5.8 mph - N/A   Clear
3:33 AM 68.9 °F - 66.6 °F 92% 30.01 in 2.0 mi North 4.6 mph - N/A   Mostly Cloudy
3:53 AM 68.9 °F - 67.1 °F 94% 30.01 in 1.0 mi NNE 5.8 mph - N/A   Overcast
4:13 AM 68.9 °F - 66.7 °F 93% 30.01 in 0.2 mi NNE 3.5 mph - N/A   Overcast
4:33 AM 68.7 °F - 66.7 °F 93% 30.01 in 0.2 mi North 4.6 mph - N/A   Overcast
4:54 AM 68.9 °F - 67.1 °F 94% 30.01 in 0.2 mi NNE 4.6 mph - N/A   Overcast
5:13 AM 68.9 °F - 67.1 °F 94% 30.01 in 0.5 mi NNE 3.5 mph - N/A   Overcast
5:33 AM 69.1 °F - 67.3 °F 94% 30.02 in 1.2 mi NNE 3.5 mph - N/A   Overcast
5:54 AM 68.9 °F - 67.1 °F 94% 30.02 in 2.0 mi NNE 5.8 mph - N/A   Overcast
6:13 AM 68.9 °F - 67.1 °F 94% 30.02 in 2.5 mi NNE 4.6 mph - N/A   Overcast
6:33 AM 68.9 °F - 67.1 °F 94% 30.03 in 3.0 mi NE 4.6 mph - N/A   Overcast
6:54 AM 68.9 °F - 67.1 °F 94% 30.04 in 2.5 mi NE 3.5 mph - N/A   Overcast
7:13 AM 69.1 °F - 67.3 °F 94% 30.04 in 2.0 mi ENE 5.8 mph - N/A   Overcast
7:33 AM 69.3 °F - 67.3 °F 93% 30.05 in 2.0 mi NNE 5.8 mph - N/A   Overcast
7:54 AM 69.3 °F - 67.3 °F 93% 30.05 in 2.0 mi NNE 3.5 mph - N/A   Overcast
8:13 AM 69.8 °F - 67.6 °F 93% 30.06 in 2.5 mi NNE 4.6 mph - N/A   Overcast
8:33 AM 70.0 °F - 67.5 °F 92% 30.06 in 3.0 mi NNE 5.8 mph - N/A   Overcast
8:53 AM 70.2 °F - 67.3 °F 91% 30.07 in 3.0 mi NE 6.9 mph - N/A   Overcast
9:14 AM 70.3 °F - 67.3 °F 90% 30.07 in 3.0 mi NE 5.8 mph - N/A   Overcast
9:33 AM 70.5 °F - 67.1 °F 89% 30.07 in 3.0 mi ENE 5.8 mph - N/A   Overcast
9:53 AM 70.7 °F - 67.1 °F 88% 30.07 in 4.0 mi NE 3.5 mph - N/A   Overcast
10:13 AM 70.7 °F - 67.3 °F 89% 30.08 in 3.0 mi ENE 4.6 mph - N/A   Overcast
10:34 AM 71.2 °F - 67.3 °F 87% 30.08 in 4.0 mi ENE 3.5 mph - N/A   Overcast
10:53 AM 71.6 °F - 67.5 °F 87% 30.09 in 4.0 mi NE 4.6 mph - N/A   Overcast
11:13 AM 72.0 °F - 67.3 °F 85% 30.09 in 5.0 mi ENE 3.5 mph - N/A   Overcast
11:34 AM 72.9 °F - 67.6 °F 84% 30.09 in 5.0 mi NNE 3.5 mph - N/A   Overcast
11:53 AM 73.4 °F - 66.9 °F 80% 30.09 in 7.0 mi Calm Calm - N/A   Overcast
12:13 PM 73.8 °F - 66.9 °F 79% 30.09 in 7.0 mi NNE 3.5 mph - N/A   Overcast
12:33 PM 74.8 °F - 67.3 °F 77% 30.09 in 7.0 mi NE 4.6 mph - N/A   Overcast
12:53 PM 76.1 °F - 67.8 °F 75% 30.08 in 7.0 mi Calm Calm - N/A   Overcast
1:14 PM 77.7 °F - 68.0 °F 72% 30.08 in 7.0 mi Calm Calm - N/A   Mostly Cloudy
1:33 PM 78.6 °F - 67.5 °F 68% 30.08 in 7.0 mi ENE 5.8 mph - N/A   Overcast
1:53 PM 78.1 °F - 67.1 °F 69% 30.08 in 7.0 mi East 4.6 mph - N/A   Overcast
2:13 PM 79.7 °F - 66.6 °F 64% 30.08 in 10.0 mi NE 4.6 mph - N/A   Mostly Cloudy
2:33 PM 81.7 °F 83.5 °F 64.9 °F 57% 30.07 in 7.0 mi East 6.9 mph - N/A   Scattered Clouds
2:54 PM 81.0 °F 83.0 °F 65.8 °F 60% 30.07 in 10.0 mi East 3.5 mph - N/A   Scattered Clouds
3:13 PM 82.9 °F 85.0 °F 65.8 °F 56% 30.05 in 5.0 mi NE 4.6 mph - N/A   Scattered Clouds
3:33 PM 81.9 °F 83.5 °F 64.8 °F 56% 30.05 in 10.0 mi East 4.6 mph - N/A   Scattered Clouds
3:54 PM 81.9 °F 83.4 °F 64.4 °F 55% 30.05 in 10.0 mi NNE 3.5 mph - N/A   Scattered Clouds
4:13 PM 83.3 °F 84.6 °F 63.9 °F 52% 30.05 in 10.0 mi Calm Calm - N/A   Scattered Clouds
4:33 PM 81.3 °F 83.2 °F 65.5 °F 58% 30.04 in 7.0 mi ENE 5.8 mph - N/A   Scattered Clouds
4:53 PM 83.8 °F 86.0 °F 65.8 °F 55% 30.04 in 10.0 mi East 3.5 mph - N/A   Scattered Clouds
5:13 PM 81.7 °F 83.2 °F 64.0 °F 55% 30.04 in 10.0 mi Calm Calm - N/A   Scattered Clouds
5:34 PM 81.9 °F 83.7 °F 65.5 °F 57% 30.04 in 10.0 mi Calm Calm - N/A   Scattered Clouds
5:53 PM 81.7 °F 83.3 °F 64.6 °F 56% 30.03 in 10.0 mi Calm Calm - N/A   Mostly Cloudy
6:13 PM 79.9 °F - 68.2 °F 67% 30.03 in 10.0 mi Calm Calm - N/A   Scattered Clouds
6:34 PM 81.0 °F 83.4 °F 67.1 °F 63% 30.03 in 10.0 mi East 5.8 mph - N/A   Clear
6:53 PM 78.6 °F - 66.6 °F 66% 30.03 in 10.0 mi Calm Calm - N/A   Clear
7:13 PM 79.2 °F - 68.9 °F 71% 30.03 in 10.0 mi Calm Calm - N/A   Clear
7:34 PM 77.4 °F - 68.0 °F 73% 30.03 in 10.0 mi Calm Calm - N/A   Clear
7:53 PM 76.5 °F - 66.7 °F 72% 30.03 in 7.0 mi Calm Calm - N/A   Clear
8:13 PM 74.1 °F - 66.6 °F 77% 30.03 in 7.0 mi Calm Calm - N/A   Clear
8:34 PM 70.2 °F - 66.2 °F 87% 30.04 in 4.0 mi Calm Calm - N/A   Clear
8:53 PM 68.9 °F - 65.7 °F 89% 30.04 in 4.0 mi Calm Calm - N/A   Clear
9:13 PM 69.1 °F - 66.0 °F 90% 30.04 in 5.0 mi Calm Calm - N/A   Clear
9:33 PM 67.1 °F - 64.0 °F 90% 30.05 in 5.0 mi Calm Calm - N/A   Clear
9:54 PM 67.5 °F - 65.1 °F 92% 30.05 in 5.0 mi Calm Calm - N/A   Clear
10:13 PM 66.6 °F - 63.9 °F 91% 30.05 in 5.0 mi Calm Calm - N/A   Clear
10:33 PM 65.8 °F - 63.5 °F 92% 30.05 in 4.0 mi Calm Calm - N/A   Clear
10:54 PM 66.0 °F - 63.9 °F 93% 30.05 in 4.0 mi Calm Calm - N/A   Clear
11:13 PM 64.8 °F - 62.6 °F 93% 30.05 in 3.0 mi Calm Calm - N/A   Clear
11:33 PM 65.7 °F - 63.5 °F 93% 30.04 in 1.8 mi Calm Calm - N/A   Unknown
11:54 PM 66.9 °F - 64.8 °F 93% 30.04 in 4.0 mi Calm Calm - N/A   Clear